This is the latest recevied weather packets stored in our database for station/object RODN. If no packets are shown the sender has not sent any weather packets the latest 1 day(s).
| Time | Temp. | Humidity | Pressure | Rain* | Wind** | Luminosity | Snow |
|---|---|---|---|---|---|---|---|
| 1778058230 | 22.78° C | 83% | 1019.6 hPa | - | 6.71 m/s, 160° | - | - |
| 1778057630 | 22.78° C | 83% | 1020 hPa | - | 6.71 m/s, 160° | - | - |
| 1778057032 | 22.78° C | 83% | 1020 hPa | - | 6.71 m/s, 160° | - | - |
| 1778056427 | 22.78° C | 83% | 1020 hPa | - | 6.71 m/s, 160° | - | - |
| 1778055826 | 22.78° C | 83% | 1020 hPa | - | 6.71 m/s, 160° | - | - |
| 1778055225 | 22.78° C | 83% | 1020 hPa | - | 6.71 m/s, 160° | - | - |
| 1778054626 | 22.78° C | 83% | 1020 hPa | - | 5.81 m/s, 130° | - | - |
| 1778054024 | - | - | 1020 hPa | - | 5.81 m/s, 130° | - | - |
| 1778053428 | - | - | 1020 hPa | - | 8.94 m/s, 110° | - | - |
| 1778052826 | - | - | 1020 hPa | - | 8.94 m/s, 110° | - | - |
| 1778052227 | - | - | 1020 hPa | - | 8.94 m/s, 110° | - | - |
| 1778051628 | - | - | 1020 hPa | - | 8.94 m/s, 110° | - | - |
| 1778051028 | - | - | 1020 hPa | - | 7.6 m/s, 110° | - | - |
| 1778050423 | 21.67° C | 94% | 1020.3 hPa | - | 7.6 m/s, 110° | - | - |
| 1778049825 | 21.67° C | 94% | 1020.3 hPa | - | 7.6 m/s, 110° | - | - |
| 1778049232 | 21.67° C | 94% | 1014.6 hPa | - | 4.47 m/s, 110° | - | - |
| 1778048626 | 21.67° C | 94% | 1014.6 hPa | - | 4.47 m/s, 110° | - | - |
| 1778048025 | 22.78° C | 88% | 1020.3 hPa | - | 2.24 m/s, 110° | - | - |
| 1778047430 | 22.78° C | 88% | 1020.3 hPa | - | 2.68 m/s, 50° | - | - |
| 1778046827 | 22.78° C | 88% | 1014.9 hPa | - | 2.68 m/s, 50° | - | - |
| 1778046231 | 22.78° C | 88% | 1014.9 hPa | - | 2.68 m/s, 50° | - | - |
| 1778045624 | 22.78° C | 88% | 1014.9 hPa | - | 2.68 m/s, 50° | - | - |
| 1778045026 | 22.78° C | 88% | 1014.9 hPa | - | 2.68 m/s, 50° | - | - |
| 1778044426 | 22.78° C | 88% | 1014.9 hPa | - | 2.68 m/s, 50° | - | - |
| 1778043828 | 22.78° C | 88% | 1014.6 hPa | - | 4.47 m/s, 40° | - | - |
* Rain since midnight (hover to see other rain measurements)
** Current wind speed in m/s (hover to see current wind gust speed)